QPF
0.00 0.00 0.00 0.00 0.00 0.00 0.00 0.00 0.00 0.00 0.00 0.00 0.00 0.00 0.00 0.00 0.00 0.00 0.00 0.00 0.00 0.00 0.00 0.00 0.00 0.00 0.00 0.00 0.00 0.00 0.00 0.00 0.00 0.00 0.01 0.01 0.01 0.02 0.03 0.03 0.03 0.03 0.03 0.03
0.00 0.00 0.00 0.00 0.00 0.00 0.00 0.00 0.00 0.00 0.00 0.00 0.00 0.00 0.00 0.00 0.00 0.00 0.00 0.00 0.00 0.00 0.00 0.00 0.00 0.00 0.00 0.00 0.00 0.00 0.00 0.00 0.01 0.01 0.01 0.01 0.01 0.01 0.02 0.04 0.04 0.04 0.04 0.03
0.00 0.00 0.00 0.00 0.00 0.00 0.00 0.00 0.00 0.00 0.00 0.00 0.00 0.00 0.00 0.00 0.00 0.00 0.00 0.00 0.00 0.00 0.00 0.00 0.00 0.00 0.00 0.00 0.00 0.00 0.00 0.00 0.01 0.01 0.01 0.02 0.02 0.01 0.02 0.03 0.04 0.04 0.04 0.03
0.00 0.00 0.00 0.00 0.00 0.00 0.00 0.00 0.00 0.00 0.00 0.00 0.00 0.00 0.00 0.00 0.00 0.00 0.00 0.00 0.00 0.00 0.00 0.00 0.00 0.00 0.00 0.00 0.00 0.00 0.00 0.00 0.00 0.01 0.02 0.02 0.02 0.02 0.02 0.02 0.02 0.03 0.04 0.03
0.00 0.00 0.00 0.00 0.00 0.00 0.00 0.00 0.00 0.00 0.00 0.00 0.00 0.00 0.00 0.00 0.00 0.00 0.00 0.00 0.00 0.00 0.00 0.00 0.00 0.00 0.00 0.00 0.00 0.00 0.00 0.00 0.00 0.01 0.01 0.02 0.02 0.02 0.02 0.03 0.03 0.02 0.02 0.03
0.00 0.00 0.00 0.00 0.00 0.00 0.00 0.00 0.00 0.00 0.00 0.01 0.00 0.00 0.01 0.01 0.01 0.00 0.00 0.00 0.00 0.00 0.00 0.00 0.00 0.00 0.00 0.00 0.00 0.00 0.00 0.00 0.00 0.01 0.01 0.02 0.02 0.02 0.02 0.02 0.02 0.02 0.02 0.02
0.00 0.00 0.00 0.00 0.00 0.00 0.01 0.01 0.01 0.01 0.01 0.00 0.00 0.00 0.01 0.01 0.01 0.00 0.00 0.00 0.00 0.00 0.00 0.00 0.00 0.00 0.00 0.00 0.01 0.01 0.01 0.01 0.01 0.01 0.01 0.02 0.02 0.02 0.01 0.01 0.01 0.02 0.02 0.01
0.00 0.00 0.00 0.00 0.00 0.00 0.01 0.02 0.02 0.01 0.01 0.00 0.00 0.00 0.01 0.01 0.01 0.00 0.00 0.00 0.00 0.00 0.00 0.00 0.00 0.01 0.01 0.01 0.01 0.01 0.01 0.02 0.01 0.01 0.02 0.02 0.02 0.01 0.01 0.01 0.01 0.01 0.02 0.02
0.00 0.00 0.00 0.00 0.00 0.00 0.00 0.01 0.01 0.02 0.01 0.01 0.00 0.00 0.01 0.00 0.00 0.00 0.00 0.00 0.00 0.00 0.00 0.00 0.00 0.01 0.01 0.02 0.02 0.02 0.02 0.02 0.03 0.02 0.02 0.02 0.02 0.02 0.01 0.00 0.01 0.01 0.01 0.01
0.00 0.00 0.00 0.00 0.00 0.00 0.00 0.00 0.01 0.03 0.03 0.02 0.01 0.01 0.01 0.00 0.00 0.00 0.00 0.00 0.00 0.00 0.00 0.00 0.01 0.01 0.02 0.02 0.03 0.02 0.02 0.03 0.03 0.03 0.03 0.02 0.02 0.02 0.01 0.00 0.00 0.01 0.01 0.01
0.00 0.00 0.00 0.00 0.00 0.00 0.00 0.01 0.02 0.03 0.03 0.03 0.01 0.01 0.01 0.01 0.00 0.00 0.00 0.00 0.00 0.00 0.00 0.00 0.00 0.01 0.02 0.02 0.03 0.03 0.02 0.03 0.02 0.02 0.02 0.02 0.02 0.01 0.01 0.01 0.00 0.00 0.01 0.01
0.01 0.01 0.01 0.00 0.00 0.00 0.01 0.01 0.02 0.03 0.03 0.02 0.02 0.01 0.01 0.00 0.00 0.00 0.00 0.00 0.00 0.00 0.00 0.00 0.00 0.01 0.02 0.02 0.02 0.02 0.02 0.02 0.02 0.02 0.02 0.01 0.02 0.02 0.01 0.01 0.00 0.00 0.00 0.00
0.02 0.04 0.04 0.02 0.01 0.01 0.00 0.00 0.01 0.02 0.02 0.02 0.02 0.01 0.00 0.00 0.00 0.00 0.00 0.00 0.00 0.00 0.00 0.00 0.00 0.01 0.01 0.02 0.02 0.02 0.02 0.02 0.02 0.02 0.02 0.02 0.02 0.02 0.01 0.01 0.01 0.01 0.01 0.00
0.03 0.04 0.03 0.03 0.02 0.02 0.01 0.00 0.01 0.02 0.02 0.01 0.01 0.01 0.00 0.01 0.01 0.01 0.00 0.00 0.00 0.00 0.00 0.01 0.01 0.01 0.01 0.01 0.02 0.02 0.02 0.02 0.02 0.02 0.02 0.02 0.02 0.01 0.01 0.01 0.01 0.01 0.01 0.01
0.03 0.03 0.01 0.01 0.01 0.01 0.01 0.01 0.01 0.02 0.02 0.02 0.01 0.00 0.01 0.01 0.01 0.01 0.00 0.00 0.00 0.00 0.00 0.01 0.01 0.01 0.01 0.01 0.01 0.01 0.01 0.02 0.02 0.02 0.01 0.02 0.02 0.01 0.01 0.01 0.01 0.01 0.01 0.01
0.03 0.03 0.02 0.01 0.00 0.00 0.01 0.01 0.01 0.01 0.01 0.02 0.01 0.01 0.01 0.01 0.00 0.00 0.00 0.00 0.00 0.00 0.00 0.01 0.01 0.01 0.01 0.01 0.01 0.01 0.01 0.02 0.02 0.02 0.01 0.01 0.02 0.02 0.01 0.01 0.01 0.01 0.01 0.01
0.03 0.03 0.04 0.02 0.00 0.01 0.01 0.01 0.01 0.01 0.02 0.02 0.02 0.01 0.01 0.00 0.01 0.01 0.00 0.00 0.01 0.01 0.01 0.01 0.01 0.01 0.01 0.01 0.01 0.01 0.01 0.02 0.02 0.02 0.02 0.01 0.01 0.02 0.02 0.01 0.01 0.01 0.01 0.01
0.02 0.03 0.05 0.03 0.01 0.02 0.02 0.01 0.00 0.01 0.02 0.02 0.01 0.01 0.01 0.01 0.01 0.01 0.00 0.00 0.01 0.01 0.01 0.01 0.01 0.01 0.01 0.01 0.01 0.01 0.01 0.02 0.02 0.02 0.02 0.01 0.01 0.01 0.02 0.01 0.01 0.01 0.01 0.01
0.01 0.04 0.06 0.05 0.03 0.01 0.01 0.01 0.01 0.01 0.02 0.02 0.01 0.01 0.01 0.01 0.01 0.01 0.01 0.01 0.01 0.01 0.01 0.01 0.01 0.01 0.01 0.01 0.01 0.02 0.02 0.01 0.02 0.02 0.02 0.01 0.01 0.01 0.02 0.02 0.01 0.01 0.01 0.01
0.01 0.03 0.07 0.06 0.05 0.03 0.02 0.01 0.01 0.02 0.03 0.01 0.01 0.01 0.01 0.01 0.02 0.01 0.01 0.01 0.00 0.00 0.01 0.01 0.01 0.01 0.01 0.01 0.02 0.02 0.02 0.01 0.02 0.02 0.03 0.02 0.02 0.01 0.02 0.02 0.01 0.01 0.01 0.01
0.02 0.04 0.05 0.04 0.04 0.02 0.01 0.00 0.01 0.03 0.03 0.01 0.01 0.01 0.01 0.01 0.02 0.02 0.01 0.01 0.00 0.00 0.01 0.01 0.01 0.01 0.01 0.01 0.02 0.02 0.02 0.02 0.02 0.02 0.02 0.02 0.02 0.01 0.02 0.02 0.01 0.01 0.01 0.01
0.01 0.03 0.03 0.04 0.06 0.03 0.01 0.01 0.02 0.02 0.01 0.00 0.01 0.01 0.01 0.01 0.01 0.02 0.01 0.01 0.00 0.00 0.01 0.01 0.01 0.02 0.02 0.01 0.01 0.02 0.02 0.02 0.02 0.02 0.02 0.02 0.01 0.01 0.02 0.01 0.01 0.01 0.01 0.01
0.01 0.01 0.02 0.03 0.03 0.02 0.01 0.02 0.01 0.01 0.01 0.01 0.01 0.02 0.02 0.02 0.01 0.02 0.02 0.01 0.00 0.00 0.01 0.01 0.01 0.02 0.03 0.01 0.01 0.01 0.02 0.02 0.02 0.02 0.02 0.01 0.01 0.01 0.01 0.01 0.01 0.01 0.01 0.01
0.01 0.01 0.02 0.01 0.01 0.01 0.01 0.01 0.01 0.01 0.02 0.02 0.02 0.02 0.02 0.01 0.01 0.02 0.02 0.01 0.00 0.00 0.01 0.01 0.01 0.02 0.03 0.02 0.01 0.01 0.01 0.02 0.02 0.02 0.02 0.02 0.01 0.01 0.01 0.02 0.01 0.01 0.01 0.01
0.01 0.01 0.01 0.01 0.00 0.00 0.01 0.01 0.01 0.01 0.01 0.02 0.01 0.01 0.01 0.02 0.01 0.02 0.02 0.01 0.00 0.00 0.01 0.01 0.01 0.02 0.02 0.01 0.01 0.01 0.01 0.01 0.02 0.02 0.02 0.02 0.01 0.01 0.02 0.02 0.02 0.01 0.01 0.01
0.01 0.01 0.03 0.03 0.01 0.02 0.02 0.02 0.02 0.02 0.02 0.02 0.02 0.01 0.01 0.01 0.02 0.02 0.02 0.02 0.01 0.01 0.01 0.01 0.01 0.01 0.01 0.01 0.01 0.01 0.01 0.01 0.02 0.01 0.01 0.02 0.02 0.02 0.02 0.02 0.02 0.02 0.02 0.02
MSLP
1014.33 1014.44 1014.60 1014.81 1015.06 1015.31 1015.53 1015.67 1015.67 1015.51 1015.20 1014.73 1014.17 1013.57 1013.00 1012.54 1012.22 1012.05 1012.02 1012.11 1012.25 1012.42 1012.56 1012.67 1012.75 1012.84 1012.97 1013.19 1013.52 1013.97 1014.53 1015.17 1015.84 1016.49 1017.08 1017.57 1017.96 1018.25 1018.45 1018.59 1018.70 1018.79 1018.89 1018.99
1014.55 1014.65 1014.81 1015.02 1015.26 1015.51 1015.71 1015.82 1015.80 1015.62 1015.27 1014.79 1014.23 1013.65 1013.14 1012.76 1012.55 1012.51 1012.61 1012.82 1013.07 1013.30 1013.47 1013.55 1013.56 1013.53 1013.51 1013.57 1013.73 1014.02 1014.45 1014.98 1015.57 1016.17 1016.73 1017.21 1017.60 1017.88 1018.08 1018.22 1018.33 1018.44 1018.55 1018.68
1014.80 1014.92 1015.09 1015.31 1015.55 1015.79 1015.98 1016.08 1016.04 1015.85 1015.51 1015.05 1014.53 1014.02 1013.61 1013.35 1013.28 1013.39 1013.65 1014.00 1014.36 1014.67 1014.87 1014.94 1014.87 1014.73 1014.57 1014.45 1014.42 1014.53 1014.78 1015.16 1015.62 1016.11 1016.58 1016.99 1017.32 1017.56 1017.73 1017.85 1017.95 1018.05 1018.18 1018.33
1015.12 1015.27 1015.45 1015.67 1015.91 1016.14 1016.32 1016.41 1016.37 1016.20 1015.90 1015.50 1015.07 1014.68 1014.40 1014.29 1014.38 1014.65 1015.06 1015.54 1016.02 1016.40 1016.63 1016.68 1016.57 1016.33 1016.04 1015.76 1015.55 1015.47 1015.54 1015.73 1016.02 1016.35 1016.69 1016.98 1017.20 1017.36 1017.46 1017.53 1017.60 1017.69 1017.81 1017.97
1015.51 1015.68 1015.87 1016.08 1016.30 1016.50 1016.67 1016.75 1016.73 1016.60 1016.37 1016.08 1015.78 1015.54 1015.42 1015.48 1015.73 1016.15 1016.70 1017.30 1017.85 1018.29 1018.55 1018.60 1018.45 1018.14 1017.75 1017.34 1016.99 1016.74 1016.62 1016.63 1016.73 1016.89 1017.06 1017.20 1017.29 1017.33 1017.33 1017.33 1017.34 1017.38 1017.48 1017.62
1015.97 1016.14 1016.32 1016.49 1016.66 1016.81 1016.94 1017.01 1017.02 1016.95 1016.83 1016.68 1016.55 1016.49 1016.56 1016.79 1017.20 1017.75 1018.40 1019.08 1019.69 1020.16 1020.43 1020.47 1020.30 1019.96 1019.51 1019.02 1018.56 1018.19 1017.92 1017.77 1017.69 1017.67 1017.66 1017.64 1017.58 1017.48 1017.37 1017.26 1017.19 1017.17 1017.22 1017.32
1016.47 1016.62 1016.74 1016.83 1016.92 1017.00 1017.07 1017.13 1017.17 1017.19 1017.19 1017.21 1017.28 1017.43 1017.69 1018.10 1018.64 1019.29 1020.01 1020.72 1021.34 1021.81 1022.08 1022.12 1021.94 1021.59 1021.13 1020.61 1020.10 1019.65 1019.28 1019.00 1018.79 1018.61 1018.44 1018.25 1018.04 1017.81 1017.57 1017.35 1017.18 1017.08 1017.05 1017.10
1017.00 1017.09 1017.11 1017.09 1017.06 1017.03 1017.03 1017.07 1017.14 1017.26 1017.41 1017.62 1017.90 1018.26 1018.71 1019.28 1019.93 1020.65 1021.39 1022.09 1022.69 1023.14 1023.39 1023.42 1023.25 1022.92 1022.48 1021.97 1021.47 1020.99 1020.58 1020.22 1019.90 1019.60 1019.30 1018.98 1018.64 1018.27 1017.92 1017.59 1017.32 1017.12 1017.00 1016.96
1017.55 1017.54 1017.44 1017.28 1017.11 1016.96 1016.88 1016.89 1017.00 1017.22 1017.53 1017.93 1018.41 1018.97 1019.60 1020.29 1021.03 1021.78 1022.50 1023.16 1023.70 1024.09 1024.31 1024.33 1024.18 1023.89 1023.50 1023.05 1022.58 1022.13 1021.71 1021.32 1020.94 1020.57 1020.18 1019.75 1019.31 1018.84 1018.38 1017.95 1017.58 1017.28 1017.06 1016.92
1018.14 1018.02 1017.79 1017.48 1017.16 1016.90 1016.74 1016.73 1016.88 1017.19 1017.64 1018.21 1018.88 1019.61 1020.38 1021.17 1021.94 1022.68 1023.35 1023.94 1024.40 1024.72 1024.89 1024.90 1024.77 1024.53 1024.20 1023.82 1023.42 1023.02 1022.63 1022.24 1021.84 1021.43 1020.99 1020.51 1020.00 1019.46 1018.93 1018.42 1017.96 1017.56 1017.23 1016.98
1018.83 1018.60 1018.24 1017.80 1017.36 1017.01 1016.79 1016.77 1016.96 1017.35 1017.92 1018.63 1019.44 1020.29 1021.14 1021.96 1022.73 1023.42 1024.01 1024.49 1024.86 1025.11 1025.22 1025.22 1025.11 1024.92 1024.66 1024.35 1024.03 1023.68 1023.33 1022.96 1022.58 1022.16 1021.70 1021.20 1020.66 1020.08 1019.51 1018.94 1018.41 1017.92 1017.50 1017.13
1019.68 1019.37 1018.91 1018.39 1017.87 1017.46 1017.22 1017.20 1017.42 1017.88 1018.54 1019.33 1020.21 1021.11 1021.98 1022.78 1023.49 1024.09 1024.57 1024.94 1025.21 1025.37 1025.44 1025.43 1025.34 1025.19 1024.98 1024.74 1024.47 1024.18 1023.87 1023.52 1023.15 1022.74 1022.29 1021.79 1021.25 1020.67 1020.08 1019.48 1018.90 1018.34 1017.83 1017.36
1020.73 1020.38 1019.89 1019.33 1018.80 1018.37 1018.14 1018.14 1018.40 1018.90 1019.58 1020.40 1021.28 1022.15 1022.97 1023.69 1024.28 1024.76 1025.12 1025.37 1025.53 1025.62 1025.65 1025.63 1025.55 1025.43 1025.27 1025.07 1024.84 1024.58 1024.28 1023.95 1023.59 1023.19 1022.75 1022.27 1021.74 1021.18 1020.59 1019.99 1019.38 1018.77 1018.18 1017.61
1022.00 1021.66 1021.18 1020.66 1020.16 1019.78 1019.58 1019.62 1019.90 1020.40 1021.07 1021.84 1022.65 1023.42 1024.12 1024.69 1025.14 1025.47 1025.69 1025.82 1025.90 1025.93 1025.92 1025.89 1025.83 1025.73 1025.59 1025.41 1025.18 1024.92 1024.61 1024.27 1023.91 1023.51 1023.08 1022.62 1022.13 1021.59 1021.03 1020.43 1019.80 1019.16 1018.51 1017.87
1023.43 1023.14 1022.74 1022.29 1021.88 1021.58 1021.45 1021.53 1021.82 1022.29 1022.89 1023.56 1024.23 1024.85 1025.37 1025.77 1026.04 1026.20 1026.28 1026.31 1026.31 1026.30 1026.27 1026.24 1026.18 1026.09 1025.96 1025.77 1025.52 1025.23 1024.89 1024.52 1024.13 1023.72 1023.30 1022.86 1022.39 1021.89 1021.35 1020.76 1020.14 1019.47 1018.79 1018.09
1024.91 1024.71 1024.41 1024.08 1023.78 1023.59 1023.53 1023.65 1023.93 1024.35 1024.86 1025.39 1025.88 1026.31 1026.62 1026.82 1026.91 1026.91 1026.87 1026.81 1026.75 1026.71 1026.68 1026.65 1026.60 1026.51 1026.36 1026.14 1025.86 1025.51 1025.12 1024.71 1024.27 1023.84 1023.41 1022.98 1022.53 1022.05 1021.54 1020.97 1020.35 1019.68 1018.98 1018.24
1026.29 1026.19 1026.01 1025.80 1025.63 1025.54 1025.57 1025.72 1025.99 1026.34 1026.72 1027.10 1027.41 1027.63 1027.74 1027.75 1027.67 1027.55 1027.41 1027.28 1027.19 1027.14 1027.11 1027.09 1027.04 1026.94 1026.76 1026.51 1026.17 1025.76 1025.31 1024.83 1024.35 1023.88 1023.43 1022.99 1022.56 1022.10 1021.60 1021.05 1020.44 1019.78 1019.06 1018.31
1027.43 1027.41 1027.33 1027.25 1027.19 1027.19 1027.28 1027.46 1027.71 1027.99 1028.27 1028.50 1028.65 1028.69 1028.64 1028.49 1028.28 1028.06 1027.85 1027.69 1027.58 1027.53 1027.51 1027.50 1027.44 1027.33 1027.12 1026.82 1026.42 1025.95 1025.43 1024.90 1024.37 1023.86 1023.39 1022.94 1022.50 1022.04 1021.55 1021.01 1020.41 1019.75 1019.03 1018.29
1028.21 1028.25 1028.25 1028.25 1028.27 1028.35 1028.49 1028.69 1028.92 1029.16 1029.35 1029.48 1029.51 1029.43 1029.26 1029.01 1028.73 1028.45 1028.21 1028.04 1027.93 1027.88 1027.87 1027.85 1027.79 1027.65 1027.41 1027.06 1026.61 1026.09 1025.51 1024.93 1024.35 1023.81 1023.31 1022.84 1022.38 1021.92 1021.42 1020.88 1020.27 1019.62 1018.91 1018.17
1028.62 1028.68 1028.72 1028.77 1028.84 1028.97 1029.15 1029.36 1029.59 1029.80 1029.96 1030.04 1030.01 1029.87 1029.65 1029.37 1029.06 1028.77 1028.53 1028.35 1028.25 1028.21 1028.19 1028.16 1028.07 1027.90 1027.62 1027.23 1026.74 1026.17 1025.56 1024.94 1024.33 1023.76 1023.23 1022.73 1022.25 1021.76 1021.24 1020.67 1020.06 1019.40 1018.70 1017.98
1028.71 1028.76 1028.80 1028.86 1028.96 1029.11 1029.31 1029.55 1029.80 1030.02 1030.18 1030.26 1030.24 1030.11 1029.90 1029.64 1029.35 1029.08 1028.86 1028.69 1028.59 1028.53 1028.49 1028.43 1028.30 1028.09 1027.77 1027.35 1026.82 1026.23 1025.59 1024.95 1024.33 1023.73 1023.17 1022.64 1022.12 1021.59 1021.03 1020.43 1019.79 1019.11 1018.41 1017.70
1028.62 1028.63 1028.64 1028.69 1028.79 1028.95 1029.16 1029.43 1029.70 1029.96 1030.18 1030.31 1030.34 1030.28 1030.13 1029.92 1029.69 1029.46 1029.25 1029.09 1028.98 1028.89 1028.80 1028.68 1028.51 1028.24 1027.88 1027.42 1026.88 1026.27 1025.63 1024.99 1024.35 1023.74 1023.15 1022.58 1022.01 1021.42 1020.80 1020.15 1019.47 1018.77 1018.06 1017.35
1028.50 1028.45 1028.42 1028.43 1028.51 1028.67 1028.90 1029.19 1029.52 1029.84 1030.12 1030.33 1030.46 1030.49 1030.43 1030.30 1030.12 1029.93 1029.75 1029.58 1029.43 1029.28 1029.13 1028.94 1028.69 1028.37 1027.97 1027.48 1026.92 1026.32 1025.68 1025.04 1024.40 1023.77 1023.16 1022.54 1021.91 1021.25 1020.57 1019.85 1019.11 1018.37 1017.64 1016.93
1028.48 1028.37 1028.29 1028.27 1028.32 1028.47 1028.71 1029.03 1029.41 1029.79 1030.15 1030.46 1030.68 1030.80 1030.83 1030.78 1030.66 1030.50 1030.31 1030.11 1029.91 1029.70 1029.46 1029.19 1028.87 1028.48 1028.03 1027.52 1026.96 1026.36 1025.74 1025.10 1024.46 1023.82 1023.16 1022.49 1021.80 1021.07 1020.30 1019.51 1018.71 1017.92 1017.16 1016.43
1028.65 1028.48 1028.36 1028.30 1028.33 1028.47 1028.72 1029.06 1029.47 1029.91 1030.34 1030.72 1031.02 1031.22 1031.32 1031.32 1031.24 1031.09 1030.88 1030.64 1030.37 1030.08 1029.75 1029.40 1029.00 1028.56 1028.07 1027.54 1026.98 1026.38 1025.77 1025.14 1024.50 1023.83 1023.14 1022.42 1021.65 1020.84 1020.00 1019.13 1018.27 1017.43 1016.62 1015.88
1029.00 1028.79 1028.63 1028.54 1028.55 1028.68 1028.93 1029.28 1029.71 1030.18 1030.64 1031.07 1031.42 1031.67 1031.81 1031.83 1031.76 1031.59 1031.36 1031.07 1030.73 1030.36 1029.96 1029.53 1029.07 1028.58 1028.06 1027.51 1026.94 1026.35 1025.75 1025.12 1024.47 1023.78 1023.05 1022.27 1021.43 1020.55 1019.64 1018.71 1017.79 1016.90 1016.06 1015.29
Thickness
5611 5600 5594 5598 5599 5597 5595 5592 5591 5597 5601 5592 5590 5593 5598 5600 5598 5596 5595 5595 5595 5595 5596 5596 5596 5595 5594 5593 5593 5593 5593 5593 5593 5593 5593 5592 5593 5594 5595 5595 5595 5596 5596 5596
5596 5587 5591 5594 5592 5587 5584 5579 5580 5586 5589 5582 5579 5583 5590 5592 5590 5588 5586 5584 5584 5583 5583 5585 5584 5583 5583 5583 5583 5584 5584 5585 5585 5585 5585 5585 5585 5586 5587 5587 5587 5588 5589 5589
5581 5582 5584 5582 5577 5574 5572 5568 5567 5566 5570 5572 5565 5570 5580 5584 5583 5581 5577 5574 5572 5571 5570 5571 5571 5570 5570 5570 5571 5574 5574 5575 5575 5575 5576 5577 5577 5577 5577 5578 5579 5580 5581 5581
5574 5575 5572 5567 5564 5561 5557 5561 5558 5555 5545 5544 5556 5539 5567 5572 5568 5565 5561 5559 5557 5557 5558 5558 5558 5557 5557 5558 5559 5561 5563 5564 5565 5566 5566 5567 5567 5568 5569 5570 5571 5572 5573 5573
5561 5561 5556 5552 5552 5549 5548 5548 5546 5544 5537 5533 5543 5533 5550 5563 5555 5550 5548 5546 5544 5544 5544 5544 5545 5545 5546 5546 5547 5549 5551 5553 5554 5556 5557 5557 5558 5560 5561 5562 5562 5563 5564 5565
5553 5552 5546 5542 5540 5538 5536 5534 5536 5534 5526 5515 5535 5528 5533 5539 5540 5537 5535 5534 5532 5531 5531 5531 5532 5533 5533 5534 5535 5536 5539 5542 5544 5545 5547 5548 5549 5551 5551 5552 5553 5554 5556 5557
5542 5541 5536 5531 5526 5526 5520 5511 5505 5506 5503 5513 5534 5524 5519 5528 5529 5527 5523 5520 5519 5518 5517 5518 5519 5519 5520 5521 5523 5525 5527 5530 5533 5534 5536 5538 5540 5541 5542 5543 5544 5545 5547 5548
5520 5519 5521 5517 5511 5504 5505 5502 5488 5483 5493 5505 5515 5509 5507 5518 5516 5513 5511 5509 5507 5505 5504 5505 5506 5506 5507 5509 5511 5513 5516 5519 5521 5523 5525 5528 5530 5531 5533 5534 5536 5537 5538 5540
5499 5505 5510 5508 5505 5498 5494 5490 5491 5476 5477 5479 5494 5499 5498 5503 5500 5497 5497 5494 5492 5492 5492 5493 5494 5495 5495 5497 5499 5502 5504 5507 5510 5513 5515 5517 5519 5521 5523 5525 5526 5528 5529 5530
5489 5483 5495 5494 5491 5487 5484 5481 5470 5462 5459 5467 5489 5490 5481 5483 5482 5482 5480 5478 5478 5479 5480 5480 5481 5482 5483 5485 5487 5490 5493 5495 5499 5502 5504 5507 5508 5510 5512 5514 5516 5517 5519 5520
5477 5468 5475 5477 5475 5474 5469 5466 5462 5456 5456 5452 5458 5466 5479 5473 5471 5468 5466 5465 5464 5465 5465 5466 5467 5468 5470 5472 5474 5477 5480 5483 5487 5491 5493 5495 5497 5499 5501 5503 5505 5506 5508 5510
5464 5455 5453 5466 5472 5470 5463 5456 5449 5436 5439 5444 5438 5445 5465 5461 5459 5457 5454 5453 5452 5452 5452 5453 5454 5455 5456 5458 5461 5464 5467 5471 5475 5479 5481 5483 5485 5487 5489 5492 5494 5495 5497 5499
5445 5437 5434 5449 5450 5449 5445 5445 5440 5432 5425 5424 5422 5434 5448 5445 5442 5441 5440 5439 5438 5438 5439 5440 5440 5441 5442 5444 5447 5450 5454 5457 5462 5466 5469 5472 5474 5476 5478 5480 5482 5484 5486 5488
5434 5425 5423 5426 5433 5430 5426 5428 5428 5419 5407 5412 5421 5426 5427 5423 5421 5422 5423 5424 5424 5424 5425 5426 5425 5426 5428 5431 5433 5436 5440 5444 5448 5452 5457 5460 5463 5465 5467 5469 5471 5473 5475 5477
5417 5411 5417 5420 5424 5421 5418 5417 5416 5410 5407 5403 5410 5410 5409 5407 5406 5407 5408 5410 5411 5411 5412 5412 5411 5413 5415 5417 5420 5423 5427 5431 5435 5439 5444 5447 5451 5454 5456 5457 5459 5462 5464 5465
5404 5399 5400 5401 5412 5411 5409 5409 5407 5404 5400 5396 5396 5396 5396 5395 5394 5394 5394 5396 5397 5397 5398 5398 5398 5400 5402 5404 5407 5410 5413 5417 5421 5426 5431 5434 5438 5441 5443 5445 5448 5450 5452 5453
5390 5385 5381 5386 5400 5397 5393 5396 5395 5390 5387 5383 5377 5379 5382 5381 5379 5378 5379 5381 5381 5382 5383 5383 5384 5386 5388 5390 5393 5396 5400 5403 5407 5411 5416 5421 5424 5427 5430 5433 5435 5437 5440 5442
5378 5372 5367 5370 5376 5368 5383 5389 5385 5378 5375 5371 5368 5368 5368 5366 5365 5365 5366 5365 5364 5366 5368 5370 5371 5373 5375 5378 5380 5383 5386 5389 5393 5397 5402 5406 5410 5414 5417 5420 5422 5425 5427 5430
5374 5364 5355 5357 5357 5368 5373 5373 5367 5362 5357 5359 5356 5355 5355 5354 5353 5354 5353 5350 5349 5350 5353 5356 5359 5361 5363 5365 5368 5371 5374 5377 5381 5385 5389 5393 5397 5401 5404 5407 5410 5412 5415 5418
5365 5357 5345 5346 5345 5352 5355 5358 5359 5353 5342 5347 5344 5341 5339 5338 5333 5338 5339 5337 5338 5339 5341 5344 5347 5350 5352 5354 5357 5360 5363 5366 5370 5374 5378 5382 5385 5389 5392 5396 5398 5401 5404 5406
5349 5343 5336 5334 5333 5339 5344 5345 5344 5330 5327 5332 5330 5327 5325 5323 5319 5322 5325 5326 5327 5328 5330 5333 5336 5339 5341 5344 5347 5350 5353 5356 5360 5363 5367 5371 5374 5377 5381 5385 5388 5390 5393 5395
5340 5334 5331 5329 5324 5327 5335 5331 5322 5318 5321 5320 5317 5315 5313 5311 5312 5312 5313 5314 5316 5318 5320 5323 5325 5329 5332 5335 5337 5340 5343 5346 5350 5353 5357 5360 5364 5367 5371 5373 5376 5379 5382 5384
5336 5331 5326 5323 5323 5326 5324 5318 5315 5312 5309 5307 5305 5303 5301 5300 5301 5302 5303 5304 5305 5308 5310 5313 5315 5319 5322 5325 5328 5329 5333 5336 5340 5343 5346 5350 5353 5356 5359 5362 5365 5368 5371 5373
5332 5330 5322 5316 5320 5319 5315 5310 5307 5303 5298 5297 5295 5293 5292 5290 5291 5291 5293 5295 5297 5299 5301 5304 5306 5309 5312 5314 5317 5319 5323 5326 5330 5333 5336 5340 5343 5346 5348 5351 5355 5358 5361 5363
5319 5316 5310 5307 5309 5307 5306 5300 5296 5293 5290 5288 5286 5284 5283 5282 5282 5282 5283 5285 5287 5290 5292 5294 5296 5299 5302 5304 5307 5309 5312 5316 5319 5322 5326 5329 5333 5335 5338 5341 5344 5348 5351 5354
5309 5303 5297 5297 5297 5291 5291 5290 5287 5283 5280 5278 5276 5275 5274 5273 5272 5273 5274 5276 5278 5280 5283 5285 5288 5290 5293 5295 5297 5299 5302 5305 5309 5313 5316 5319 5323 5325 5328 5331 5334 5338 5341 5345